Tracking 20083 objects as of 9-Dec-2019
HD Live streaming from Space Station
objects crossing your sky now

FENGYUN 1C DEB

Track FENGYUN 1C DEB now!
10-day predictions


NORAD ID: 35213
Int'l Code: 1999-025DPV
Perigee: 515.7 km
Apogee: 746.0 km
Inclination: 98.5 °
Period: 97.2 minutes
Semi major axis: 7001 km
RCS: 0.006 m2 (small)
Launch date: May 10, 1999
Source: People's Republic of China (PRC)
Launch site: Taiyaun Space Center, China (TSC)

Note: This is SATELLITE DEBRIS
aabbcc
Your satellite tracking list
Your tracking list is empty




NASA's NSSDC Master Catalog

Two Line Element Set (TLE):
1 35213U 99025DPV 19342.49124672 +.00001659 +00000-0 +17374-3 0  9999
2 35213 098.5210 178.7492 0164429 212.1897 146.9194 14.81785796599727
Source of the keplerian elements: AFSPC